Time,TemperatureF,DewpointF,PressureIn,WindDirection,WindDirectionDegrees,WindSpeedMPH,WindSpeedGustMPH,Humidity,HourlyPrecipIn,Conditions,Clouds,dailyrainin,SoftwareType,DateUTC
2013-01-11 00:03:00,45.5,32.8,30.35,East,85,0.0,0.0,61,0.00,,,0.00,LWC V2.00 B2112,2013-01-11 05:03:00,
2013-01-11 00:08:00,45.5,32.8,30.35,East,86,4.0,4.0,61,0.00,,,0.00,LWC V2.00 B2112,2013-01-11 05:08:00,
2013-01-11 00:13:00,45.5,32.4,30.35,East,84,2.0,4.0,60,0.00,,,0.00,LWC V2.00 B2112,2013-01-11 05:13:00,
2013-01-11 00:18:00,45.5,32.4,30.35,East,94,0.0,4.0,60,0.00,,,0.00,LWC V2.00 B2112,2013-01-11 05:18:00,
2013-01-11 00:23:00,45.7,32.6,30.35,East,86,0.0,0.0,60,0.00,,,0.00,LWC V2.00 B2112,2013-01-11 05:23:00,
2013-01-11 00:28:00,45.7,32.6,30.35,East,92,0.0,0.0,60,0.00,,,0.00,LWC V2.00 B2112,2013-01-11 05:28:00,
2013-01-11 00:33:00,45.5,31.6,30.35,East,93,0.0,0.0,58,0.00,,,0.00,LWC V2.00 B2112,2013-01-11 05:33:00,
2013-01-11 00:38:00,45.5,32.0,30.35,East,88,0.0,0.0,59,0.00,,,0.00,LWC V2.00 B2112,2013-01-11 05:38:00,
2013-01-11 00:43:00,45.2,31.7,30.35,ENE,78,0.0,0.0,59,0.00,,,0.00,LWC V2.00 B2112,2013-01-11 05:43:00,
2013-01-11 00:48:00,45.2,31.7,30.34,East,87,0.0,0.0,59,0.00,,,0.00,LWC V2.00 B2112,2013-01-11 05:48:00,
2013-01-11 00:53:00,45.2,31.7,30.34,East,90,0.0,0.0,59,0.00,,,0.00,LWC V2.00 B2112,2013-01-11 05:53:00,
2013-01-11 00:58:00,45.1,31.6,30.34,ENE,76,3.0,4.0,59,0.00,,,0.00,LWC V2.00 B2112,2013-01-11 05:58:00,
2013-01-11 01:03:00,45.1,31.6,30.33,ENE,78,3.0,5.0,59,0.00,,,0.00,LWC V2.00 B2112,2013-01-11 06:03:00,
2013-01-11 01:08:00,44.9,31.5,30.33,ESE,122,2.0,4.0,59,0.00,,,0.00,LWC V2.00 B2112,2013-01-11 06:08:00,
2013-01-11 01:13:00,44.8,31.4,30.33,East,85,0.0,0.0,59,0.00,,,0.00,LWC V2.00 B2112,2013-01-11 06:13:00,
2013-01-11 01:18:00,44.6,31.2,30.32,East,85,0.0,0.0,59,0.00,,,0.00,LWC V2.00 B2112,2013-01-11 06:18:00,
2013-01-11 01:23:00,44.5,31.5,30.32,ESE,105,0.0,0.0,60,0.00,,,0.00,LWC V2.00 B2112,2013-01-11 06:23:00,
2013-01-11 01:28:00,44.3,31.3,30.32,East,95,0.0,0.0,60,0.00,,,0.00,LWC V2.00 B2112,2013-01-11 06:28:00,
2013-01-11 01:33:00,44.2,31.2,30.32,East,91,3.0,5.0,60,0.00,,,0.00,LWC V2.00 B2112,2013-01-11 06:33:00,
2013-01-11 01:38:00,44.2,31.2,30.32,East,89,0.0,0.0,60,0.00,,,0.00,LWC V2.00 B2112,2013-01-11 06:38:00,
2013-01-11 01:43:00,44.3,31.3,30.32,East,86,3.0,4.0,60,0.00,,,0.00,LWC V2.00 B2112,2013-01-11 06:43:00,
2013-01-11 01:48:00,44.3,31.3,30.32,East,84,2.0,5.0,60,0.00,,,0.00,LWC V2.00 B2112,2013-01-11 06:48:00,
2013-01-11 01:53:00,44.3,31.3,30.32,East,96,3.0,3.0,60,0.00,,,0.00,LWC V2.00 B2112,2013-01-11 06:53:00,
2013-01-11 01:58:00,44.2,31.6,30.32,East,88,3.0,3.0,61,0.00,,,0.00,LWC V2.00 B2112,2013-01-11 06:58:00,
2013-01-11 02:03:00,44.2,31.6,30.32,East,89,2.0,4.0,61,0.00,,,0.00,LWC V2.00 B2112,2013-01-11 07:03:00,
2013-01-11 02:08:00,44.3,31.7,30.32,East,85,3.0,5.0,61,0.00,,,0.00,LWC V2.00 B2112,2013-01-11 07:08:00,
2013-01-11 02:13:00,44.3,31.7,30.32,East,85,2.0,3.0,61,0.00,,,0.00,LWC V2.00 B2112,2013-01-11 07:13:00,
2013-01-11 02:18:00,44.5,31.9,30.32,East,82,3.0,4.0,61,0.00,,,0.00,LWC V2.00 B2112,2013-01-11 07:18:00,
2013-01-11 02:23:00,44.5,31.1,30.32,ENE,77,3.0,3.0,59,0.00,,,0.00,LWC V2.00 B2112,2013-01-11 07:23:00,
2013-01-11 02:28:00,44.6,31.6,30.32,East,86,3.0,3.0,60,0.00,,,0.00,LWC V2.00 B2112,2013-01-11 07:28:00,
2013-01-11 02:33:00,44.6,31.6,30.32,East,80,3.0,4.0,60,0.00,,,0.00,LWC V2.00 B2112,2013-01-11 07:33:00,
2013-01-11 02:38:00,44.6,31.6,30.32,East,83,2.0,5.0,60,0.00,,,0.00,LWC V2.00 B2112,2013-01-11 07:38:00,
2013-01-11 02:43:00,44.6,31.2,30.32,East,84,4.0,5.0,59,0.00,,,0.00,LWC V2.00 B2112,2013-01-11 07:43:00,
2013-01-11 02:48:00,44.5,31.9,30.32,East,87,0.0,0.0,61,0.00,,,0.00,LWC V2.00 B2112,2013-01-11 07:48:00,
2013-01-11 02:53:00,44.5,31.9,30.32,East,89,2.0,5.0,61,0.00,,,0.00,LWC V2.00 B2112,2013-01-11 07:53:00,
2013-01-11 02:58:00,44.5,31.5,30.32,East,88,0.0,4.0,60,0.00,,,0.00,LWC V2.00 B2112,2013-01-11 07:58:00,
2013-01-11 03:03:00,44.5,31.5,30.31,East,91,4.0,5.0,60,0.00,,,0.00,LWC V2.00 B2112,2013-01-11 08:03:00,
2013-01-11 03:08:00,44.6,31.2,30.31,ENE,77,2.0,5.0,59,0.00,,,0.00,LWC V2.00 B2112,2013-01-11 08:08:00,
2013-01-11 03:13:00,44.6,31.6,30.31,East,82,0.0,0.0,60,0.00,,,0.00,LWC V2.00 B2112,2013-01-11 08:13:00,
2013-01-11 03:18:00,44.5,31.5,30.30,East,80,0.0,3.0,60,0.00,,,0.00,LWC V2.00 B2112,2013-01-11 08:18:00,
2013-01-11 03:23:00,44.6,31.2,30.30,East,88,0.0,0.0,59,0.00,,,0.00,LWC V2.00 B2112,2013-01-11 08:23:00,
2013-01-11 03:28:00,44.6,31.6,30.30,East,84,0.0,0.0,60,0.00,,,0.00,LWC V2.00 B2112,2013-01-11 08:28:00,
2013-01-11 03:33:00,44.6,31.6,30.29,East,91,0.0,0.0,60,0.00,,,0.00,LWC V2.00 B2112,2013-01-11 08:33:00,
2013-01-11 03:38:00,44.8,31.4,30.29,East,96,0.0,0.0,59,0.00,,,0.00,LWC V2.00 B2112,2013-01-11 08:38:00,
2013-01-11 03:43:00,44.6,30.7,30.29,East,80,2.0,5.0,58,0.00,,,0.00,LWC V2.00 B2112,2013-01-11 08:43:00,
2013-01-11 03:48:00,44.6,31.2,30.28,East,89,1.0,5.0,59,0.00,,,0.00,LWC V2.00 B2112,2013-01-11 08:48:00,
2013-01-11 03:53:00,44.6,31.2,30.28,East,86,3.0,4.0,59,0.00,,,0.00,LWC V2.00 B2112,2013-01-11 08:53:00,
2013-01-11 03:58:00,44.6,31.2,30.28,ESE,115,4.0,4.0,59,0.00,,,0.00,LWC V2.00 B2112,2013-01-11 08:58:00,
2013-01-11 04:03:00,44.6,31.6,30.28,East,86,0.0,0.0,60,0.00,,,0.00,LWC V2.00 B2112,2013-01-11 09:03:00,
2013-01-11 04:08:00,44.8,31.8,30.28,East,86,0.0,0.0,60,0.00,,,0.00,LWC V2.00 B2112,2013-01-11 09:08:00,
2013-01-11 04:13:00,44.8,31.8,30.28,East,86,0.0,0.0,60,0.00,,,0.00,LWC V2.00 B2112,2013-01-11 09:13:00,
2013-01-11 04:18:00,44.8,31.8,30.27,East,96,0.0,0.0,60,0.00,,,0.00,LWC V2.00 B2112,2013-01-11 09:18:00,
2013-01-11 04:23:00,44.9,31.5,30.27,East,87,0.0,0.0,59,0.00,,,0.00,LWC V2.00 B2112,2013-01-11 09:23:00,
2013-01-11 04:28:00,44.6,32.4,30.27,East,80,0.0,0.0,62,0.00,,,0.00,LWC V2.00 B2112,2013-01-11 09:28:00,
2013-01-11 04:33:00,44.3,33.3,30.27,East,80,0.0,0.0,65,0.00,,,0.00,LWC V2.00 B2112,2013-01-11 09:33:00,
2013-01-11 04:38:00,44.1,33.1,30.27,East,80,0.0,0.0,65,0.00,,,0.00,LWC V2.00 B2112,2013-01-11 09:38:00,
2013-01-11 04:43:00,43.9,33.3,30.27,ESE,105,0.0,0.0,66,0.00,,,0.00,LWC V2.00 B2112,2013-01-11 09:43:00,
2013-01-11 04:48:00,43.8,33.2,30.26,East,91,0.0,0.0,66,0.00,,,0.00,LWC V2.00 B2112,2013-01-11 09:48:00,
2013-01-11 04:53:00,43.8,32.8,30.26,East,82,0.0,0.0,65,0.00,,,0.00,LWC V2.00 B2112,2013-01-11 09:53:00,
2013-01-11 04:58:00,43.9,32.5,30.26,East,82,0.0,0.0,64,0.00,,,0.00,LWC V2.00 B2112,2013-01-11 09:58:00,
2013-01-11 05:03:00,43.9,32.1,30.25,East,92,0.0,0.0,63,0.00,,,0.00,LWC V2.00 B2112,2013-01-11 10:03:00,
2013-01-11 05:08:00,44.1,32.7,30.25,East,86,0.0,0.0,64,0.00,,,0.00,LWC V2.00 B2112,2013-01-11 10:08:00,
2013-01-11 05:13:00,44.2,32.4,30.25,East,85,0.0,0.0,63,0.00,,,0.00,LWC V2.00 B2112,2013-01-11 10:13:00,
2013-01-11 05:18:00,44.2,31.6,30.25,East,84,0.0,0.0,61,0.00,,,0.00,LWC V2.00 B2112,2013-01-11 10:18:00,
2013-01-11 05:23:00,44.3,31.7,30.25,East,82,0.0,0.0,61,0.00,,,0.00,LWC V2.00 B2112,2013-01-11 10:23:00,
2013-01-11 05:28:00,44.5,31.9,30.25,East,82,0.0,0.0,61,0.00,,,0.00,LWC V2.00 B2112,2013-01-11 10:28:00,
2013-01-11 05:33:00,44.5,31.1,30.26,East,82,0.0,0.0,59,0.00,,,0.00,LWC V2.00 B2112,2013-01-11 10:33:00,
2013-01-11 05:38:00,44.6,32.0,30.26,East,82,0.0,0.0,61,0.00,,,0.00,LWC V2.00 B2112,2013-01-11 10:38:00,
2013-01-11 05:43:00,44.5,33.1,30.26,NE,36,0.0,0.0,64,0.00,,,0.00,LWC V2.00 B2112,2013-01-11 10:43:00,
2013-01-11 05:48:00,44.3,34.4,30.26,NE,36,0.0,0.0,68,0.00,,,0.00,LWC V2.00 B2112,2013-01-11 10:48:00,
2013-01-11 05:53:00,44.2,34.3,30.26,NE,36,0.0,0.0,68,0.00,,,0.00,LWC V2.00 B2112,2013-01-11 10:53:00,
2013-01-11 05:58:00,43.9,35.5,30.26,NE,36,0.0,0.0,72,0.00,,,0.00,LWC V2.00 B2112,2013-01-11 10:58:00,
2013-01-11 06:03:00,43.6,35.2,30.26,NE,50,0.0,0.0,72,0.00,,,0.00,LWC V2.00 B2112,2013-01-11 11:03:00,
2013-01-11 06:08:00,43.5,35.1,30.26,NE,50,0.0,0.0,72,0.00,,,0.00,LWC V2.00 B2112,2013-01-11 11:08:00,
2013-01-11 06:13:00,43.3,35.2,30.26,East,84,0.0,0.0,73,0.00,,,0.00,LWC V2.00 B2112,2013-01-11 11:13:00,
2013-01-11 06:18:00,43.3,35.2,30.25,East,96,0.0,0.0,73,0.00,,,0.00,LWC V2.00 B2112,2013-01-11 11:18:00,
2013-01-11 06:23:00,43.3,35.2,30.25,East,94,0.0,0.0,73,0.00,,,0.00,LWC V2.00 B2112,2013-01-11 11:23:00,
2013-01-11 06:28:00,43.3,35.9,30.25,East,94,0.0,0.0,75,0.00,,,0.00,LWC V2.00 B2112,2013-01-11 11:28:00,
2013-01-11 06:33:00,43.2,36.8,30.26,East,94,0.0,0.0,78,0.00,,,0.00,LWC V2.00 B2112,2013-01-11 11:33:00,
2013-01-11 06:38:00,43.1,37.4,30.26,East,94,0.0,0.0,80,0.00,,,0.00,LWC V2.00 B2112,2013-01-11 11:38:00,
2013-01-11 06:43:00,43.1,37.7,30.26,East,94,0.0,0.0,81,0.00,,,0.00,LWC V2.00 B2112,2013-01-11 11:43:00,
2013-01-11 06:48:00,42.9,37.8,30.26,East,94,0.0,0.0,82,0.00,,,0.00,LWC V2.00 B2112,2013-01-11 11:48:00,
2013-01-11 06:53:00,42.6,37.8,30.26,East,94,0.0,0.0,83,0.00,,,0.00,LWC V2.00 B2112,2013-01-11 11:53:00,
2013-01-11 06:58:00,42.5,38.0,30.26,East,94,0.0,0.0,84,0.00,,,0.00,LWC V2.00 B2112,2013-01-11 11:58:00,
2013-01-11 07:03:00,42.3,37.8,30.28,East,94,0.0,0.0,84,0.00,,,0.00,LWC V2.00 B2112,2013-01-11 12:03:00,
2013-01-11 07:08:00,42.2,38.3,30.28,East,94,0.0,0.0,86,0.00,,,0.00,LWC V2.00 B2112,2013-01-11 12:08:00,
2013-01-11 07:13:00,42.2,38.3,30.28,East,94,0.0,0.0,86,0.00,,,0.00,LWC V2.00 B2112,2013-01-11 12:13:00,
2013-01-11 07:18:00,42.1,38.5,30.29,East,94,0.0,0.0,87,0.00,,,0.01,LWC V2.00 B2112,2013-01-11 12:18:00,
2013-01-11 07:23:00,42.1,39.1,30.29,East,94,0.0,0.0,89,0.00,,,0.01,LWC V2.00 B2112,2013-01-11 12:23:00,
2013-01-11 07:28:00,42.1,39.4,30.29,East,94,0.0,0.0,90,0.00,,,0.01,LWC V2.00 B2112,2013-01-11 12:28:00,
2013-01-11 07:33:00,41.9,39.5,30.29,East,94,0.0,0.0,91,0.00,,,0.01,LWC V2.00 B2112,2013-01-11 12:33:00,
2013-01-11 07:38:00,41.9,39.5,30.29,East,94,0.0,0.0,91,0.00,,,0.02,LWC V2.00 B2112,2013-01-11 12:38:00,
2013-01-11 07:43:00,41.8,39.6,30.29,East,94,0.0,0.0,92,0.00,,,0.02,LWC V2.00 B2112,2013-01-11 12:43:00,
2013-01-11 07:48:00,41.8,39.6,30.28,East,94,0.0,0.0,92,0.00,,,0.02,LWC V2.00 B2112,2013-01-11 12:48:00,
2013-01-11 07:53:00,41.8,39.6,30.28,East,94,0.0,0.0,92,0.00,,,0.02,LWC V2.00 B2112,2013-01-11 12:53:00,
2013-01-11 07:58:00,41.9,40.0,30.28,East,94,0.0,0.0,93,0.00,,,0.02,LWC V2.00 B2112,2013-01-11 12:58:00,
2013-01-11 08:03:00,41.9,40.0,30.28,East,94,0.0,0.0,93,0.00,,,0.02,LWC V2.00 B2112,2013-01-11 13:03:00,
2013-01-11 08:08:00,41.9,40.3,30.28,East,94,0.0,0.0,94,0.00,,,0.02,LWC V2.00 B2112,2013-01-11 13:08:00,
2013-01-11 08:13:00,41.9,40.3,30.28,East,94,0.0,0.0,94,0.00,,,0.02,LWC V2.00 B2112,2013-01-11 13:13:00,
2013-01-11 08:18:00,42.1,40.5,30.28,East,94,0.0,0.0,94,0.00,,,0.02,LWC V2.00 B2112,2013-01-11 13:18:00,
2013-01-11 08:23:00,42.1,40.8,30.28,East,94,0.0,0.0,95,0.00,,,0.02,LWC V2.00 B2112,2013-01-11 13:23:00,
2013-01-11 08:28:00,42.1,40.8,30.28,East,94,0.0,0.0,95,0.00,,,0.03,LWC V2.00 B2112,2013-01-11 13:28:00,
2013-01-11 08:33:00,42.1,40.8,30.28,East,94,0.0,0.0,95,0.00,,,0.03,LWC V2.00 B2112,2013-01-11 13:33:00,
2013-01-11 08:38:00,42.1,40.8,30.28,East,94,0.0,0.0,95,0.00,,,0.03,LWC V2.00 B2112,2013-01-11 13:38:00,
2013-01-11 08:43:00,42.2,40.9,30.28,East,94,0.0,0.0,95,0.00,,,0.04,LWC V2.00 B2112,2013-01-11 13:43:00,
2013-01-11 08:48:00,42.2,41.1,30.27,East,94,0.0,0.0,96,0.00,,,0.04,LWC V2.00 B2112,2013-01-11 13:48:00,
2013-01-11 08:53:00,42.2,41.1,30.27,East,94,0.0,0.0,96,0.09,,,0.05,LWC V2.00 B2112,2013-01-11 13:53:00,
2013-01-11 08:58:00,42.3,41.2,30.27,East,94,0.0,0.0,96,0.07,,,0.05,LWC V2.00 B2112,2013-01-11 13:58:00,
2013-01-11 09:03:00,42.3,41.2,30.27,East,94,0.0,0.0,96,0.07,,,0.06,LWC V2.00 B2112,2013-01-11 14:03:00,
2013-01-11 09:08:00,42.3,41.2,30.27,East,94,0.0,0.0,96,0.07,,,0.07,LWC V2.00 B2112,2013-01-11 14:08:00,
2013-01-11 09:13:00,42.5,41.4,30.27,East,94,0.0,0.0,96,0.10,,,0.07,LWC V2.00 B2112,2013-01-11 14:13:00,
2013-01-11 09:18:00,42.5,41.4,30.26,East,94,0.0,0.0,96,0.15,,,0.09,LWC V2.00 B2112,2013-01-11 14:18:00,
2013-01-11 09:23:00,42.6,41.5,30.26,East,94,0.0,0.0,96,0.12,,,0.10,LWC V2.00 B2112,2013-01-11 14:23:00,
2013-01-11 09:28:00,42.8,42.0,30.26,East,94,0.0,0.0,97,0.11,,,0.11,LWC V2.00 B2112,2013-01-11 14:28:00,
2013-01-11 09:33:00,42.9,42.1,30.26,East,94,0.0,0.0,97,0.11,,,0.11,LWC V2.00 B2112,2013-01-11 14:33:00,
2013-01-11 09:38:00,43.1,42.3,30.26,East,94,0.0,0.0,97,0.06,,,0.11,LWC V2.00 B2112,2013-01-11 14:38:00,
2013-01-11 09:43:00,43.2,42.4,30.26,East,94,0.0,0.0,97,0.04,,,0.11,LWC V2.00 B2112,2013-01-11 14:43:00,
2013-01-11 09:48:00,43.3,42.5,30.26,East,94,0.0,0.0,97,0.00,,,0.11,LWC V2.00 B2112,2013-01-11 14:48:00,
2013-01-11 09:53:00,43.5,42.7,30.26,East,94,0.0,0.0,97,0.00,,,0.11,LWC V2.00 B2112,2013-01-11 14:53:00,
2013-01-11 09:58:00,43.5,42.7,30.26,East,94,0.0,0.0,97,0.00,,,0.11,LWC V2.00 B2112,2013-01-11 14:58:00,
2013-01-11 10:03:00,43.6,42.8,30.26,East,94,0.0,0.0,97,0.00,,,0.11,LWC V2.00 B2112,2013-01-11 15:03:00,
2013-01-11 10:08:00,43.8,43.0,30.26,East,94,0.0,0.0,97,0.00,,,0.12,LWC V2.00 B2112,2013-01-11 15:08:00,
2013-01-11 10:13:00,43.8,43.0,30.26,WNW,288,0.0,0.0,97,0.00,,,0.12,LWC V2.00 B2112,2013-01-11 15:13:00,
2013-01-11 10:18:00,43.8,43.0,30.27,WNW,288,0.0,0.0,97,0.23,,,0.14,LWC V2.00 B2112,2013-01-11 15:18:00,
2013-01-11 10:23:00,43.8,43.0,30.27,WNW,288,0.0,0.0,97,0.17,,,0.15,LWC V2.00 B2112,2013-01-11 15:23:00,
2013-01-11 10:28:00,43.8,43.0,30.27,WNW,288,0.0,0.0,97,0.11,,,0.16,LWC V2.00 B2112,2013-01-11 15:28:00,
2013-01-11 10:33:00,43.8,43.0,30.26,WNW,288,0.0,0.0,97,0.08,,,0.16,LWC V2.00 B2112,2013-01-11 15:33:00,
2013-01-11 10:38:00,43.8,43.3,30.26,WNW,288,0.0,0.0,98,0.05,,,0.16,LWC V2.00 B2112,2013-01-11 15:38:00,
2013-01-11 10:43:00,43.9,43.1,30.26,WNW,288,0.0,0.0,97,0.04,,,0.17,LWC V2.00 B2112,2013-01-11 15:43:00,
2013-01-11 10:48:00,43.9,43.1,30.25,WNW,289,0.0,0.0,97,0.11,,,0.18,LWC V2.00 B2112,2013-01-11 15:48:00,
2013-01-11 10:53:00,43.9,43.4,30.25,WNW,289,0.0,0.0,98,0.09,,,0.18,LWC V2.00 B2112,2013-01-11 15:53:00,
2013-01-11 10:58:00,43.9,43.4,30.25,WNW,289,0.0,0.0,98,0.05,,,0.18,LWC V2.00 B2112,2013-01-11 15:58:00,
2013-01-11 11:03:00,43.9,43.4,30.24,WNW,289,0.0,0.0,98,0.04,,,0.18,LWC V2.00 B2112,2013-01-11 16:03:00,
2013-01-11 11:08:00,43.9,43.4,30.24,WNW,289,0.0,0.0,98,0.00,,,0.18,LWC V2.00 B2112,2013-01-11 16:08:00,
2013-01-11 11:13:00,44.1,43.6,30.24,WNW,289,0.0,0.0,98,0.00,,,0.18,LWC V2.00 B2112,2013-01-11 16:13:00,
2013-01-11 11:18:00,44.2,43.7,30.23,WNW,289,0.0,0.0,98,0.00,,,0.18,LWC V2.00 B2112,2013-01-11 16:18:00,
2013-01-11 11:23:00,44.2,43.7,30.23,WNW,289,0.0,0.0,98,0.00,,,0.18,LWC V2.00 B2112,2013-01-11 16:23:00,
2013-01-11 11:28:00,44.5,44.0,30.23,WNW,289,0.0,0.0,98,0.00,,,0.18,LWC V2.00 B2112,2013-01-11 16:28:00,
2013-01-11 11:33:00,44.9,44.4,30.21,WNW,289,0.0,0.0,98,0.00,,,0.18,LWC V2.00 B2112,2013-01-11 16:33:00,
2013-01-11 11:38:00,44.9,44.4,30.21,WNW,293,0.0,0.0,98,0.00,,,0.18,LWC V2.00 B2112,2013-01-11 16:38:00,
2013-01-11 11:43:00,44.9,44.4,30.21,WNW,294,0.0,0.0,98,0.00,,,0.18,LWC V2.00 B2112,2013-01-11 16:43:00,
2013-01-11 11:48:00,45.2,44.7,30.19,WNW,294,0.0,0.0,98,0.00,,,0.18,LWC V2.00 B2112,2013-01-11 16:48:00,
2013-01-11 11:53:00,45.2,44.7,30.19,WNW,294,0.0,0.0,98,0.00,,,0.18,LWC V2.00 B2112,2013-01-11 16:53:00,
2013-01-11 11:58:00,45.5,45.0,30.19,WNW,294,0.0,0.0,98,0.00,,,0.18,LWC V2.00 B2112,2013-01-11 16:58:00,
2013-01-11 12:03:00,45.7,45.2,30.18,WNW,294,0.0,0.0,98,0.00,,,0.18,LWC V2.00 B2112,2013-01-11 17:03:00,
2013-01-11 12:08:00,45.8,45.3,30.18,WNW,294,0.0,0.0,98,0.00,,,0.18,LWC V2.00 B2112,2013-01-11 17:08:00,
2013-01-11 12:13:00,46.0,45.5,30.18,WNW,294,0.0,0.0,98,0.00,,,0.18,LWC V2.00 B2112,2013-01-11 17:13:00,
2013-01-11 12:18:00,46.0,45.5,30.18,WNW,294,0.0,0.0,98,0.00,,,0.18,LWC V2.00 B2112,2013-01-11 17:18:00,
2013-01-11 12:23:00,46.0,45.5,30.18,WNW,294,0.0,0.0,98,0.00,,,0.18,LWC V2.00 B2112,2013-01-11 17:23:00,
2013-01-11 12:28:00,46.0,45.5,30.18,WNW,294,0.0,0.0,98,0.00,,,0.18,LWC V2.00 B2112,2013-01-11 17:28:00,
2013-01-11 12:33:00,46.1,45.6,30.17,WNW,294,0.0,0.0,98,0.00,,,0.18,LWC V2.00 B2112,2013-01-11 17:33:00,
2013-01-11 12:38:00,46.1,45.6,30.17,WNW,294,0.0,0.0,98,0.00,,,0.18,LWC V2.00 B2112,2013-01-11 17:38:00,
2013-01-11 12:43:00,46.1,45.6,30.17,WNW,294,0.0,0.0,98,0.00,,,0.18,LWC V2.00 B2112,2013-01-11 17:43:00,
2013-01-11 12:48:00,46.2,45.7,30.17,WNW,294,0.0,0.0,98,0.00,,,0.18,LWC V2.00 B2112,2013-01-11 17:48:00,
2013-01-11 12:53:00,46.4,45.9,30.17,WNW,294,0.0,0.0,98,0.00,,,0.18,LWC V2.00 B2112,2013-01-11 17:53:00,
2013-01-11 12:58:00,46.5,46.0,30.17,WNW,294,0.0,0.0,98,0.00,,,0.18,LWC V2.00 B2112,2013-01-11 17:58:00,
2013-01-11 13:03:00,46.7,46.2,30.15,WNW,294,0.0,0.0,98,0.00,,,0.18,LWC V2.00 B2112,2013-01-11 18:03:00,
2013-01-11 13:08:00,46.8,46.3,30.15,WNW,294,0.0,0.0,98,0.00,,,0.18,LWC V2.00 B2112,2013-01-11 18:08:00,
2013-01-11 13:13:00,47.1,46.6,30.15,WNW,294,0.0,0.0,98,0.00,,,0.18,LWC V2.00 B2112,2013-01-11 18:13:00,
2013-01-11 13:18:00,47.4,47.1,30.14,WNW,294,0.0,0.0,99,0.00,,,0.18,LWC V2.00 B2112,2013-01-11 18:18:00,
2013-01-11 13:23:00,47.4,46.9,30.14,WNW,294,0.0,0.0,98,0.00,,,0.18,LWC V2.00 B2112,2013-01-11 18:23:00,
2013-01-11 13:28:00,47.6,47.1,30.14,WNW,294,0.0,0.0,98,0.00,,,0.18,LWC V2.00 B2112,2013-01-11 18:28:00,
2013-01-11 13:33:00,47.6,47.1,30.14,WNW,294,0.0,0.0,98,0.00,,,0.18,LWC V2.00 B2112,2013-01-11 18:33:00,
2013-01-11 13:38:00,47.7,47.2,30.14,WNW,294,0.0,0.0,98,0.00,,,0.18,LWC V2.00 B2112,2013-01-11 18:38:00,
2013-01-11 13:43:00,47.7,47.2,30.14,WNW,294,0.0,0.0,98,0.00,,,0.18,LWC V2.00 B2112,2013-01-11 18:43:00,
2013-01-11 13:48:00,48.0,47.5,30.13,WNW,294,0.0,0.0,98,0.00,,,0.18,LWC V2.00 B2112,2013-01-11 18:48:00,
2013-01-11 13:53:00,48.0,47.5,30.13,WNW,294,0.0,0.0,98,0.00,,,0.18,LWC V2.00 B2112,2013-01-11 18:53:00,
2013-01-11 13:58:00,48.0,47.5,30.13,WNW,294,0.0,0.0,98,0.00,,,0.18,LWC V2.00 B2112,2013-01-11 18:58:00,
2013-01-11 14:03:00,48.3,47.8,30.12,WNW,294,0.0,0.0,98,0.00,,,0.18,LWC V2.00 B2112,2013-01-11 19:03:00,
2013-01-11 14:08:00,48.5,48.0,30.12,WNW,294,0.0,0.0,98,0.00,,,0.18,LWC V2.00 B2112,2013-01-11 19:08:00,
2013-01-11 14:13:00,48.6,48.1,30.12,WNW,294,0.0,0.0,98,0.00,,,0.18,LWC V2.00 B2112,2013-01-11 19:13:00,
2013-01-11 14:18:00,48.8,48.3,30.12,WNW,294,0.0,0.0,98,0.00,,,0.18,LWC V2.00 B2112,2013-01-11 19:18:00,
2013-01-11 14:23:00,48.8,48.5,30.12,WNW,294,0.0,0.0,99,0.00,,,0.18,LWC V2.00 B2112,2013-01-11 19:23:00,
2013-01-11 14:28:00,49.1,48.8,30.12,WNW,294,0.0,0.0,99,0.00,,,0.18,LWC V2.00 B2112,2013-01-11 19:28:00,
2013-01-11 14:33:00,49.2,48.9,30.12,WNW,294,0.0,0.0,99,0.00,,,0.18,LWC V2.00 B2112,2013-01-11 19:33:00,
2013-01-11 14:38:00,49.5,49.2,30.12,WNW,294,0.0,0.0,99,0.00,,,0.18,LWC V2.00 B2112,2013-01-11 19:38:00,
2013-01-11 14:43:00,49.6,49.3,30.12,WNW,294,0.0,0.0,99,0.00,,,0.18,LWC V2.00 B2112,2013-01-11 19:43:00,
2013-01-11 14:48:00,49.9,49.6,30.11,South,184,0.0,0.0,99,0.00,,,0.18,LWC V2.00 B2112,2013-01-11 19:48:00,
2013-01-11 14:53:00,50.1,49.8,30.11,SE,141,0.0,0.0,99,0.00,,,0.18,LWC V2.00 B2112,2013-01-11 19:53:00,
2013-01-11 14:58:00,50.2,49.9,30.11,SSW,210,0.0,0.0,99,0.00,,,0.18,LWC V2.00 B2112,2013-01-11 19:58:00,
2013-01-11 15:03:00,50.2,49.9,30.11,SSW,210,0.0,0.0,99,0.00,,,0.18,LWC V2.00 B2112,2013-01-11 20:03:00,
2013-01-11 15:08:00,50.4,49.9,30.11,SSW,210,0.0,0.0,98,0.00,,,0.18,LWC V2.00 B2112,2013-01-11 20:08:00,
2013-01-11 15:13:00,50.4,49.9,30.11,SSE,149,0.0,0.0,98,0.00,,,0.18,LWC V2.00 B2112,2013-01-11 20:13:00,
2013-01-11 15:18:00,50.4,49.9,30.10,SSW,203,0.0,0.0,98,0.00,,,0.18,LWC V2.00 B2112,2013-01-11 20:18:00,
2013-01-11 15:23:00,50.5,50.2,30.10,SSW,203,0.0,0.0,99,0.00,,,0.18,LWC V2.00 B2112,2013-01-11 20:23:00,
2013-01-11 15:28:00,50.7,50.2,30.10,SSE,162,0.0,3.0,98,0.00,,,0.18,LWC V2.00 B2112,2013-01-11 20:28:00,
2013-01-11 15:33:00,50.5,50.0,30.10,SE,136,0.0,0.0,98,0.00,,,0.18,LWC V2.00 B2112,2013-01-11 20:33:00,
2013-01-11 15:38:00,50.5,50.0,30.10,SE,136,0.0,0.0,98,0.00,,,0.18,LWC V2.00 B2112,2013-01-11 20:38:00,
2013-01-11 15:43:00,50.5,50.0,30.10,SE,136,0.0,0.0,98,0.00,,,0.18,LWC V2.00 B2112,2013-01-11 20:43:00,
2013-01-11 15:48:00,50.5,50.0,30.10,SE,136,0.0,0.0,98,0.00,,,0.18,LWC V2.00 B2112,2013-01-11 20:48:00,
2013-01-11 15:53:00,50.5,50.0,30.10,SE,136,0.0,0.0,98,0.00,,,0.18,LWC V2.00 B2112,2013-01-11 20:53:00,
2013-01-11 15:58:00,50.5,50.2,30.10,SE,136,0.0,0.0,99,0.00,,,0.18,LWC V2.00 B2112,2013-01-11 20:58:00,
2013-01-11 16:03:00,50.5,50.2,30.11,SE,136,0.0,0.0,99,0.00,,,0.18,LWC V2.00 B2112,2013-01-11 21:03:00,
2013-01-11 16:08:00,50.5,50.2,30.11,SE,133,0.0,0.0,99,0.00,,,0.18,LWC V2.00 B2112,2013-01-11 21:08:00,
2013-01-11 16:13:00,50.5,50.2,30.11,SE,133,0.0,0.0,99,0.00,,,0.18,LWC V2.00 B2112,2013-01-11 21:13:00,
2013-01-11 16:18:00,50.5,50.2,30.09,SE,133,0.0,0.0,99,0.00,,,0.18,LWC V2.00 B2112,2013-01-11 21:18:00,
2013-01-11 16:23:00,50.5,50.2,30.09,SE,133,0.0,0.0,99,0.00,,,0.18,LWC V2.00 B2112,2013-01-11 21:23:00,
2013-01-11 16:28:00,50.7,50.4,30.09,SE,133,0.0,0.0,99,0.00,,,0.18,LWC V2.00 B2112,2013-01-11 21:28:00,
2013-01-11 16:33:00,50.8,50.5,30.09,SE,133,0.0,0.0,99,0.00,,,0.18,LWC V2.00 B2112,2013-01-11 21:33:00,
2013-01-11 16:38:00,50.8,50.5,30.09,SE,133,0.0,0.0,99,0.00,,,0.18,LWC V2.00 B2112,2013-01-11 21:38:00,
2013-01-11 16:43:00,50.7,50.4,30.09,SE,133,0.0,0.0,99,0.00,,,0.18,LWC V2.00 B2112,2013-01-11 21:43:00,
2013-01-11 16:48:00,50.7,50.4,30.09,West,274,0.0,0.0,99,0.00,,,0.18,LWC V2.00 B2112,2013-01-11 21:48:00,
2013-01-11 16:53:00,50.7,50.4,30.09,West,274,0.0,0.0,99,0.00,,,0.18,LWC V2.00 B2112,2013-01-11 21:53:00,
2013-01-11 16:58:00,50.7,50.4,30.09,West,274,0.0,0.0,99,0.00,,,0.18,LWC V2.00 B2112,2013-01-11 21:58:00,
2013-01-11 17:03:00,50.7,50.4,30.09,West,274,0.0,0.0,99,0.00,,,0.18,LWC V2.00 B2112,2013-01-11 22:03:00,
2013-01-11 17:08:00,50.7,50.4,30.09,West,274,0.0,0.0,99,0.00,,,0.18,LWC V2.00 B2112,2013-01-11 22:08:00,
2013-01-11 17:13:00,50.7,50.4,30.09,West,274,0.0,0.0,99,0.00,,,0.18,LWC V2.00 B2112,2013-01-11 22:13:00,
2013-01-11 17:18:00,50.7,50.4,30.09,WSW,252,0.0,0.0,99,0.00,,,0.18,LWC V2.00 B2112,2013-01-11 22:18:00,
2013-01-11 17:23:00,50.5,50.2,30.09,WSW,252,0.0,0.0,99,0.00,,,0.18,LWC V2.00 B2112,2013-01-11 22:23:00,
2013-01-11 17:28:00,50.5,50.2,30.09,SSE,163,0.0,0.0,99,0.00,,,0.18,LWC V2.00 B2112,2013-01-11 22:28:00,
2013-01-11 17:33:00,50.5,50.2,30.09,SSE,163,0.0,0.0,99,0.00,,,0.18,LWC V2.00 B2112,2013-01-11 22:33:00,
2013-01-11 17:38:00,50.5,50.2,30.09,SSE,163,0.0,0.0,99,0.00,,,0.18,LWC V2.00 B2112,2013-01-11 22:38:00,
2013-01-11 17:43:00,50.5,50.2,30.09,SSE,163,0.0,0.0,99,0.00,,,0.18,LWC V2.00 B2112,2013-01-11 22:43:00,
2013-01-11 17:48:00,50.5,50.2,30.09,SSE,163,0.0,0.0,99,0.00,,,0.18,LWC V2.00 B2112,2013-01-11 22:48:00,
2013-01-11 17:53:00,50.4,50.1,30.09,SSE,163,0.0,0.0,99,0.00,,,0.18,LWC V2.00 B2112,2013-01-11 22:53:00,
2013-01-11 17:58:00,50.4,50.1,30.09,SSE,163,0.0,0.0,99,0.00,,,0.18,LWC V2.00 B2112,2013-01-11 22:58:00,
2013-01-11 18:03:00,50.4,50.1,30.09,SSE,163,0.0,0.0,99,0.00,,,0.18,LWC V2.00 B2112,2013-01-11 23:03:00,
2013-01-11 18:08:00,50.4,50.1,30.09,SSE,163,0.0,0.0,99,0.00,,,0.18,LWC V2.00 B2112,2013-01-11 23:08:00,
2013-01-11 18:13:00,50.4,50.1,30.09,SSE,163,0.0,0.0,99,0.00,,,0.18,LWC V2.00 B2112,2013-01-11 23:13:00,
2013-01-11 18:18:00,50.2,49.9,30.10,SSE,163,0.0,0.0,99,0.00,,,0.18,LWC V2.00 B2112,2013-01-11 23:18:00,
2013-01-11 18:23:00,50.2,49.9,30.10,SSE,163,0.0,0.0,99,0.00,,,0.18,LWC V2.00 B2112,2013-01-11 23:23:00,
2013-01-11 18:28:00,50.1,49.8,30.10,SSE,163,0.0,0.0,99,0.00,,,0.18,LWC V2.00 B2112,2013-01-11 23:28:00,
2013-01-11 18:33:00,50.1,49.8,30.09,SSE,163,0.0,0.0,99,0.00,,,0.18,LWC V2.00 B2112,2013-01-11 23:33:00,
2013-01-11 18:38:00,50.1,49.8,30.09,SSE,163,0.0,0.0,99,0.00,,,0.18,LWC V2.00 B2112,2013-01-11 23:38:00,
2013-01-11 18:43:00,49.9,49.6,30.09,SSE,163,0.0,0.0,99,0.00,,,0.18,LWC V2.00 B2112,2013-01-11 23:43:00,
2013-01-11 18:48:00,49.6,49.3,30.09,WNW,285,0.0,0.0,99,0.00,,,0.18,LWC V2.00 B2112,2013-01-11 23:48:00,
2013-01-11 18:53:00,49.4,49.1,30.09,WNW,285,0.0,0.0,99,0.00,,,0.18,LWC V2.00 B2112,2013-01-11 23:53:00,
2013-01-11 18:58:00,49.2,48.9,30.09,WSW,237,0.0,0.0,99,0.00,,,0.18,LWC V2.00 B2112,2013-01-11 23:58:00,
2013-01-11 19:03:00,49.1,48.8,30.09,WSW,237,0.0,0.0,99,0.00,,,0.18,LWC V2.00 B2112,2013-01-12 00:03:00,
2013-01-11 19:08:00,48.9,48.6,30.09,WSW,237,0.0,0.0,99,0.00,,,0.18,LWC V2.00 B2112,2013-01-12 00:08:00,
2013-01-11 19:13:00,48.9,48.6,30.09,WSW,237,0.0,0.0,99,0.00,,,0.18,LWC V2.00 B2112,2013-01-12 00:13:00,
2013-01-11 19:18:00,48.8,48.5,30.08,WSW,237,0.0,0.0,99,0.00,,,0.18,LWC V2.00 B2112,2013-01-12 00:18:00,
2013-01-11 19:23:00,48.6,48.3,30.08,WSW,237,0.0,0.0,99,0.00,,,0.18,LWC V2.00 B2112,2013-01-12 00:23:00,
2013-01-11 19:28:00,48.6,48.3,30.08,WSW,237,0.0,0.0,99,0.00,,,0.18,LWC V2.00 B2112,2013-01-12 00:28:00,
2013-01-11 19:33:00,48.5,48.2,30.09,WSW,237,0.0,0.0,99,0.00,,,0.18,LWC V2.00 B2112,2013-01-12 00:33:00,
2013-01-11 19:38:00,48.5,48.2,30.09,WSW,237,0.0,0.0,99,0.00,,,0.18,LWC V2.00 B2112,2013-01-12 00:38:00,
2013-01-11 19:43:00,48.3,48.0,30.09,WSW,237,0.0,0.0,99,0.00,,,0.18,LWC V2.00 B2112,2013-01-12 00:43:00,
2013-01-11 19:48:00,48.3,48.0,30.09,WSW,237,0.0,0.0,99,0.00,,,0.18,LWC V2.00 B2112,2013-01-12 00:48:00,
2013-01-11 19:53:00,48.2,47.9,30.09,WSW,237,0.0,0.0,99,0.00,,,0.18,LWC V2.00 B2112,2013-01-12 00:53:00,
2013-01-11 19:58:00,48.2,48.2,30.09,WSW,237,0.0,0.0,100,0.00,,,0.18,LWC V2.00 B2112,2013-01-12 00:58:00,
2013-01-11 20:03:00,48.0,48.0,30.08,WSW,237,0.0,0.0,100,0.00,,,0.18,LWC V2.00 B2112,2013-01-12 01:03:00,
2013-01-11 20:08:00,48.0,48.0,30.08,WSW,257,0.0,0.0,100,0.00,,,0.18,LWC V2.00 B2112,2013-01-12 01:08:00,
2013-01-11 20:13:00,48.0,48.0,30.08,WSW,257,0.0,0.0,100,0.00,,,0.18,LWC V2.00 B2112,2013-01-12 01:13:00,
2013-01-11 20:18:00,48.0,48.0,30.09,WSW,257,0.0,0.0,100,0.00,,,0.18,LWC V2.00 B2112,2013-01-12 01:18:00,
2013-01-11 20:23:00,48.0,48.0,30.09,WSW,257,0.0,0.0,100,0.00,,,0.18,LWC V2.00 B2112,2013-01-12 01:23:00,
2013-01-11 20:28:00,48.0,48.0,30.09,WSW,257,0.0,0.0,100,0.00,,,0.18,LWC V2.00 B2112,2013-01-12 01:28:00,
2013-01-11 20:33:00,48.0,48.0,30.08,WSW,257,0.0,0.0,100,0.00,,,0.18,LWC V2.00 B2112,2013-01-12 01:33:00,
2013-01-11 20:38:00,48.0,48.0,30.08,WSW,257,0.0,0.0,100,0.00,,,0.18,LWC V2.00 B2112,2013-01-12 01:38:00,
2013-01-11 20:43:00,48.0,48.0,30.08,WSW,257,0.0,0.0,100,0.00,,,0.18,LWC V2.00 B2112,2013-01-12 01:43:00,
2013-01-11 20:48:00,48.0,48.0,30.09,WSW,257,0.0,0.0,100,0.00,,,0.18,LWC V2.00 B2112,2013-01-12 01:48:00,
2013-01-11 20:53:00,48.0,48.0,30.09,WSW,257,0.0,0.0,100,0.00,,,0.18,LWC V2.00 B2112,2013-01-12 01:53:00,
2013-01-11 20:58:00,48.0,48.0,30.09,WSW,257,0.0,0.0,100,0.00,,,0.18,LWC V2.00 B2112,2013-01-12 01:58:00,
2013-01-11 21:03:00,48.0,48.0,30.10,WSW,257,0.0,0.0,100,0.00,,,0.18,LWC V2.00 B2112,2013-01-12 02:03:00,
2013-01-11 21:08:00,47.9,47.9,30.10,West,265,0.0,0.0,100,0.00,,,0.18,LWC V2.00 B2112,2013-01-12 02:08:00,
2013-01-11 21:13:00,48.0,48.0,30.10,West,281,0.0,0.0,100,0.00,,,0.18,LWC V2.00 B2112,2013-01-12 02:13:00,
2013-01-11 21:18:00,48.0,48.0,30.10,West,281,0.0,0.0,100,0.00,,,0.18,LWC V2.00 B2112,2013-01-12 02:18:00,
2013-01-11 21:23:00,48.0,48.0,30.10,SW,232,0.0,0.0,100,0.00,,,0.18,LWC V2.00 B2112,2013-01-12 02:23:00,
2013-01-11 21:28:00,48.0,48.0,30.10,West,259,0.0,0.0,100,0.00,,,0.18,LWC V2.00 B2112,2013-01-12 02:28:00,
2013-01-11 21:33:00,48.0,48.0,30.09,West,261,0.0,0.0,100,0.00,,,0.18,LWC V2.00 B2112,2013-01-12 02:33:00,
2013-01-11 21:38:00,48.0,48.0,30.09,West,259,0.0,0.0,100,0.00,,,0.18,LWC V2.00 B2112,2013-01-12 02:38:00,
2013-01-11 21:43:00,48.0,48.0,30.09,West,259,0.0,0.0,100,0.00,,,0.18,LWC V2.00 B2112,2013-01-12 02:43:00,
2013-01-11 21:48:00,48.0,48.0,30.09,West,259,0.0,0.0,100,0.00,,,0.18,LWC V2.00 B2112,2013-01-12 02:48:00,
2013-01-11 21:53:00,48.0,48.0,30.09,West,259,0.0,0.0,100,0.00,,,0.18,LWC V2.00 B2112,2013-01-12 02:53:00,
2013-01-11 21:58:00,48.2,48.2,30.09,West,259,0.0,0.0,100,0.00,,,0.19,LWC V2.00 B2112,2013-01-12 02:58:00,
2013-01-11 22:03:00,48.2,48.2,30.08,West,259,0.0,0.0,100,0.00,,,0.19,LWC V2.00 B2112,2013-01-12 03:03:00,
2013-01-11 22:08:00,48.2,48.2,30.08,West,259,0.0,0.0,100,0.00,,,0.19,LWC V2.00 B2112,2013-01-12 03:08:00,
2013-01-11 22:13:00,48.2,48.2,30.08,West,259,0.0,0.0,100,0.00,,,0.19,LWC V2.00 B2112,2013-01-12 03:13:00,
2013-01-11 22:18:00,48.2,48.2,30.08,West,259,0.0,0.0,100,0.00,,,0.19,LWC V2.00 B2112,2013-01-12 03:18:00,
2013-01-11 22:23:00,48.2,48.2,30.08,West,259,0.0,0.0,100,0.00,,,0.19,LWC V2.00 B2112,2013-01-12 03:23:00,
2013-01-11 22:28:00,48.2,48.2,30.08,West,259,0.0,0.0,100,0.00,,,0.19,LWC V2.00 B2112,2013-01-12 03:28:00,
2013-01-11 22:33:00,48.2,48.2,30.07,West,259,0.0,0.0,100,0.00,,,0.19,LWC V2.00 B2112,2013-01-12 03:33:00,
2013-01-11 22:38:00,48.3,48.3,30.07,SW,220,0.0,5.0,100,0.00,,,0.19,LWC V2.00 B2112,2013-01-12 03:38:00,
2013-01-11 22:43:00,48.3,48.3,30.07,SW,222,0.0,0.0,100,0.00,,,0.19,LWC V2.00 B2112,2013-01-12 03:43:00,
2013-01-11 22:48:00,48.3,48.3,30.07,SSW,213,0.0,0.0,100,0.00,,,0.19,LWC V2.00 B2112,2013-01-12 03:48:00,
2013-01-11 22:53:00,48.3,48.3,30.07,South,184,0.0,0.0,100,0.00,,,0.19,LWC V2.00 B2112,2013-01-12 03:53:00,
2013-01-11 22:58:00,48.5,48.5,30.07,WNW,283,0.0,0.0,100,0.00,,,0.19,LWC V2.00 B2112,2013-01-12 03:58:00,
2013-01-11 23:03:00,48.5,48.5,30.07,WNW,300,0.0,2.0,100,0.00,,,0.19,LWC V2.00 B2112,2013-01-12 04:03:00,
2013-01-11 23:08:00,48.5,48.5,30.07,WNW,300,0.0,0.0,100,0.00,,,0.19,LWC V2.00 B2112,2013-01-12 04:08:00,
2013-01-11 23:13:00,48.6,48.6,30.07,WNW,290,0.0,0.0,100,0.00,,,0.19,LWC V2.00 B2112,2013-01-12 04:13:00,
2013-01-11 23:18:00,48.6,48.6,30.07,WNW,290,0.0,0.0,100,0.00,,,0.19,LWC V2.00 B2112,2013-01-12 04:18:00,
2013-01-11 23:23:00,48.6,48.6,30.07,WNW,290,0.0,0.0,100,0.00,,,0.19,LWC V2.00 B2112,2013-01-12 04:23:00,
2013-01-11 23:28:00,48.8,48.8,30.07,WNW,290,0.0,0.0,100,0.00,,,0.19,LWC V2.00 B2112,2013-01-12 04:28:00,
2013-01-11 23:33:00,48.8,48.8,30.06,WNW,288,0.0,0.0,100,0.00,,,0.19,LWC V2.00 B2112,2013-01-12 04:33:00,
2013-01-11 23:38:00,48.8,48.8,30.06,WNW,288,0.0,0.0,100,0.00,,,0.19,LWC V2.00 B2112,2013-01-12 04:38:00,
2013-01-11 23:43:00,48.8,48.8,30.06,SW,232,0.0,0.0,100,0.00,,,0.19,LWC V2.00 B2112,2013-01-12 04:43:00,
2013-01-11 23:48:00,48.8,48.8,30.06,SW,235,0.0,2.0,100,0.00,,,0.19,LWC V2.00 B2112,2013-01-12 04:48:00,
2013-01-11 23:53:00,48.9,48.9,30.06,West,268,0.0,0.0,100,0.00,,,0.19,LWC V2.00 B2112,2013-01-12 04:53:00,
2013-01-11 23:58:00,48.9,48.9,30.06,WSW,258,0.0,0.0,100,0.00,,,0.19,LWC V2.00 B2112,2013-01-12 04:58:00,